[[{"header":{"parameterUnit":"m.s-1","parameterCategory":1,"la1":30.2991,"la2":30.254,"lo1":-89.0895,"lo2":-89.0444,"dy":0.0017,"dx":0.0017,"nx":28,"ny":28,"refTime":"2024-05-14T21:00:00:Z","depth":0,"parameterNumber":2,"parameterNumberName":"U-component_of_WINDS"},"data":[0,0,0,0,0,0,0,0,0,0,0,0,0,0,0,0,0,0,0,0,0,0,0,0,0,0,0,0,0,0,0,0,0,0,0,0,0,0,0,0,0,0,0,0,0,0,0,0,0,0,0,0,0,0,0,0,0,0,2.898,2.8981,0,2.9042,2.9043,2.9043,2.9032,2.9031,2.903,2.9029,2.9097,2.91,2.9103,0,0,0,0,0,0,0,0,0,0,0,0,0,2.886,2.8862,2.898,2.8981,2.8982,2.9042,2.9043,2.9043,2.9032,2.9031,2.903,2.9029,2.9096,2.91,2.9103,0,0,0,0,0,0,0,0,0,0,0,0,0,2.8916,2.8863,2.898,2.8983,2.8984,2.9042,2.9043,2.9044,2.9033,2.9031,2.9029,2.9028,2.9095,2.9099,2.9104,2.9163,0,0,2.9117,2.9118,0,0,0,0,0,0,0,0,2.8913,2.8921,2.8982,2.8983,2.8984,2.9028,2.9025,2.9084,2.9033,2.9015,2.9029,2.9027,2.9076,2.9082,2.9097,2.9166,2.9169,2.9117,2.912,2.9121,2.9123,0,0,0,0,0,0,0,2.8909,2.8918,2.9005,2.8983,2.8985,2.8984,2.899,2.9036,2.9054,2.9016,2.9015,2.9023,2.9076,2.9093,2.9098,2.917,2.9117,2.9121,2.9123,2.9125,2.9296,2.9298,0,0,0,0,0,0,2.8903,2.8915,2.9003,2.9007,2.8944,2.8988,2.8994,2.9015,2.9053,2.9057,2.9024,2.9022,2.9086,2.9093,2.9101,2.9176,2.9121,2.9125,2.9128,2.9294,2.9296,2.9298,0,0,0,0,0,0,2.8901,2.8911,2.9,2.8961,2.8972,2.8991,2.9015,2.9018,2.9034,2.9059,2.9063,2.9037,2.9085,2.9095,2.9148,2.9178,2.9127,2.9131,2.9291,2.9295,2.9297,2.9324,0,0,0,0,0,0,2.8897,2.891,2.8931,2.8961,2.8974,2.9045,2.9017,2.902,2.9041,2.9039,2.9073,2.9077,2.9085,2.9142,2.9152,2.9183,2.9134,2.9289,2.9293,2.9296,2.9321,2.9328,2.9334,0,0,0,0,0,2.8893,2.8937,2.8932,2.8943,2.9,2.9046,2.9054,2.9061,2.9043,2.9066,2.9083,2.9076,2.9172,2.9147,2.9159,2.9191,2.9287,2.9292,2.9296,2.9318,2.9327,2.9334,0,0,0,0,0,0,2.8911,2.8941,2.8936,2.899,2.9016,2.9044,2.9073,2.9069,2.9101,2.9098,2.9107,2.9114,2.917,2.9185,2.9157,2.9253,2.9228,2.9235,2.9241,2.9249,2.9255,2.9251,2.9138,0,0,0,0,0,2.8921,2.8954,2.8979,2.9024,2.9037,2.9053,2.9073,2.9076,2.9104,2.9115,2.9135,2.9164,2.9201,2.9226,2.9261,2.9323,2.9332,2.9351,2.9358,2.9363,2.937,2.9408,2.9417,2.9313,2.9313,2.9313,0,0,2.8942,2.8963,2.8983,2.9028,2.9048,2.9085,2.9062,2.9101,2.9129,2.9121,2.9173,2.919,2.9223,2.9281,2.9308,2.9297,2.94,2.9368,2.9372,2.9376,2.9413,2.9423,2.9432,2.9316,2.9315,2.9315,0,0,2.9001,2.9018,2.9059,2.908,2.9111,2.9121,2.9132,2.9161,2.9172,2.9224,2.922,2.9254,2.9317,2.9342,2.9363,2.9434,2.943,2.9445,2.9479,2.9516,2.9525,2.9532,2.9561,2.957,2.9451,2.9451,2.9451,0,2.9024,2.9077,2.9082,2.9122,2.9144,2.9137,2.9181,2.9202,2.9243,2.926,2.9245,2.9326,2.9348,2.9414,2.9432,2.9447,2.9462,2.9442,2.9523,2.953,2.9537,2.9565,2.9575,2.9453,2.9453,2.9453,2.9452,0,2.9106,2.9144,2.9174,2.9213,2.9238,2.928,2.9293,2.9319,2.932,2.9333,2.9389,2.9414,2.9456,2.9472,2.9474,2.954,2.9532,2.952,2.9495,2.9549,2.9575,2.9585,2.9456,2.9455,2.9454,2.9454,0,0,2.9177,2.922,2.9231,2.9251,2.9285,2.9315,2.9359,2.9399,2.9422,2.9451,2.949,2.9544,2.9534,2.9558,2.9563,2.9595,2.9654,2.958,2.9581,2.9595,2.9733,2.9744,2.9756,2.9651,2.9653,2.9655,2.9731,0,2.9241,2.9316,2.9322,2.9391,2.9427,2.9423,2.9461,2.9488,2.9502,2.9537,2.9553,2.9593,2.9575,2.959,2.9621,2.964,2.9682,2.9634,2.9691,2.9693,2.9685,2.9769,2.978,2.9851,2.9741,2.9743,2.9744,0,2.9326,2.9357,2.9429,2.9461,2.9477,2.9511,2.955,2.9583,2.9615,2.9623,2.965,2.9652,2.97,2.9672,2.974,2.9707,2.9731,2.9744,2.9747,2.9755,2.9723,2.9782,2.9873,2.9885,2.976,2.9758,2.9757,0,2.9375,2.9435,2.9487,2.9503,2.9541,2.9566,2.9583,2.9613,2.9638,2.9673,2.969,2.973,2.9753,2.9785,2.9799,2.9777,2.9868,2.984,2.9879,2.9879,2.99,2.9899,3.0,2.9911,2.9911,2.991,2.991,0,2.9447,2.9492,2.951,2.9542,2.9593,2.9601,2.9653,2.9669,2.9697,2.9734,2.9732,2.9768,2.9782,2.9821,2.9832,2.989,2.9899,2.991,2.9913,2.9911,2.991,2.9929,2.9925,2.9913,2.9913,2.9912,2.9912,0,2.9511,2.9524,2.9581,2.9612,2.9622,2.9658,2.9687,2.972,2.9733,2.9781,2.9793,2.9815,2.9861,2.9878,2.9933,2.9941,3.0009,3.0006,2.9998,2.9999,3.0038,3.0035,3.0156,3.0174,3.007,3.0071,3.0072,0,2.9557,2.9592,2.9628,2.9652,2.967,2.9709,2.9735,2.9745,2.9772,2.9813,2.9842,2.9887,2.9924,2.9998,3.0021,3.0065,3.0065,3.0105,3.0072,3.0071,3.007,3.0069,3.0074,3.0112,3.0113,3.0114,3.0114,0,2.9639,2.9645,2.9681,2.972,2.975,2.9782,2.9813,2.9833,2.9849,2.988,2.9927,2.9955,3.0013,3.006,3.0105,3.0125,3.0124,3.0124,3.0136,3.0136,3.0131,3.0138,3.0017,3.0122,3.0121,3.012,3.012,3.012,2.9698,2.973,2.9761,2.9802,2.9826,2.9856,2.9889,2.9907,2.9946,2.9992,2.9997,3.0048,3.0082,3.0143,3.0166,3.0208,3.0198,3.0214,3.0219,3.0223,3.0228,3.0123,3.0216,3.0216,3.0216,3.0216,3.0215,0,2.9783,2.9803,2.9841,2.9884,2.9918,2.9911,2.9946,2.9975,3.0019,3.0051,3.0087,3.0143,3.0189,3.0216,3.0262,3.0291,3.0292,3.0303,3.0303,3.0309,3.0233,3.0219,3.0302,3.0302,3.0302,3.0302,3.0302,3.0302,2.9832,2.9886,2.9896,2.9964,2.9984,3.0033,3.0054,3.0083,3.0108,3.017,3.0207,3.0224,3.0255,3.0304,3.0347,3.0354,3.0373,3.0386,3.0393,3.0322,3.0313,3.0305,3.0292,3.0389,3.0389,3.0465,3.0466,3.0466]},{"header":{"parameterUnit":"m.s-1","parameterCategory":1,"la1":30.2991,"la2":30.254,"lo1":-89.0895,"lo2":-89.0444,"dy":0.0017,"dx":0.0017,"nx":28,"ny":28,"refTime":"2024-05-14T21:00:00:Z","depth":0,"parameterNumber":3,"parameterNumberName":"V-component_of_WINDS"},"data":[0,0,0,0,0,0,0,0,0,0,0,0,0,0,0,0,0,0,0,0,0,0,0,0,0,0,0,0,0,0,0,0,0,0,0,0,0,0,0,0,0,0,0,0,0,0,0,0,0,0,0,0,0,0,0,0,0,0,0.1751,0.1754,0,0.2039,0.2042,0.2045,0.2058,0.2055,0.2052,0.2048,0.2346,0.2356,0.2367,0,0,0,0,0,0,0,0,0,0,0,0,0,0.1212,0.1222,0.1751,0.1754,0.1758,0.2038,0.2042,0.2046,0.2059,0.2055,0.2051,0.2047,0.2342,0.2355,0.2368,0,0,0,0,0,0,0,0,0,0,0,0,0,0.1467,0.1225,0.175,0.1798,0.1805,0.2037,0.2042,0.2047,0.206,0.2055,0.205,0.2045,0.2338,0.2354,0.237,0.2575,0,0,0.2421,0.2428,0,0,0,0,0,0,0,0,0.1453,0.1487,0.1787,0.1795,0.1804,0.2007,0.1961,0.2224,0.2061,0.1963,0.2048,0.2042,0.2237,0.2262,0.2327,0.2589,0.2601,0.2422,0.2432,0.244,0.2444,0,0,0,0,0,0,0,0.1435,0.1475,0.1865,0.1792,0.1802,0.1805,0.1836,0.2011,0.2125,0.1971,0.1973,0.2007,0.2241,0.2311,0.2334,0.2606,0.2422,0.2437,0.2447,0.2453,0.3045,0.3051,0,0,0,0,0,0,0.1408,0.146,0.1855,0.1873,0.1612,0.1819,0.1853,0.1947,0.2124,0.2145,0.2011,0.2006,0.2285,0.2315,0.2345,0.2594,0.2439,0.2455,0.2465,0.3039,0.3046,0.3053,0,0,0,0,0,0,0.1396,0.1443,0.1844,0.1667,0.1718,0.1834,0.1939,0.1955,0.2026,0.2153,0.2174,0.2062,0.2282,0.2321,0.2516,0.2604,0.2463,0.2478,0.3033,0.3042,0.305,0.3094,0,0,0,0,0,0,0.1381,0.1439,0.1518,0.1669,0.1728,0.2011,0.1944,0.1965,0.2054,0.2051,0.2206,0.2227,0.2281,0.2491,0.2533,0.2624,0.2491,0.3025,0.3037,0.3047,0.3085,0.3103,0.3118,0,0,0,0,0,0.1362,0.1521,0.1522,0.157,0.1829,0.2016,0.205,0.2108,0.2061,0.2142,0.2223,0.2222,0.2587,0.2511,0.2558,0.2656,0.302,0.3033,0.3046,0.3078,0.31,0.3118,0,0,0,0,0,0,0.1379,0.1541,0.1545,0.1758,0.1873,0.2018,0.2122,0.213,0.2262,0.2254,0.2321,0.2356,0.2548,0.2622,0.2534,0.2861,0.2798,0.2821,0.2806,0.2828,0.2844,0.2823,0.2504,0,0,0,0,0,0.1407,0.1545,0.168,0.1854,0.1912,0.2006,0.209,0.2124,0.2247,0.2296,0.2392,0.2511,0.2652,0.2744,0.2882,0.3095,0.3128,0.3185,0.3201,0.3214,0.3234,0.3349,0.3375,0.3095,0.3095,0.3095,0,0,0.1468,0.1574,0.1657,0.186,0.1954,0.2094,0.2048,0.22,0.2305,0.232,0.2509,0.2583,0.272,0.2924,0.3019,0.2991,0.3318,0.3231,0.324,0.3253,0.3365,0.3391,0.3415,0.3104,0.3102,0.3101,0,0,0.1651,0.1745,0.1899,0.1993,0.2134,0.2195,0.2231,0.2375,0.2424,0.2615,0.2628,0.2753,0.2996,0.3092,0.3173,0.3387,0.3391,0.3429,0.3516,0.3628,0.365,0.367,0.3744,0.377,0.3448,0.3448,0.3448,0,0.1709,0.1921,0.1978,0.2129,0.2217,0.2234,0.239,0.2479,0.2658,0.2718,0.2684,0.2986,0.308,0.3305,0.3356,0.3422,0.3465,0.3413,0.3642,0.3663,0.3682,0.3754,0.3782,0.3452,0.3451,0.3451,0.3451,0,0.1984,0.2131,0.2239,0.2409,0.2509,0.2662,0.2741,0.2835,0.2859,0.2924,0.3116,0.3228,0.3387,0.3443,0.347,0.3672,0.3649,0.3628,0.3567,0.3711,0.378,0.3808,0.3457,0.3456,0.3455,0.3454,0,0,0.2189,0.2385,0.2424,0.25,0.2655,0.2769,0.2921,0.3075,0.3154,0.3276,0.3404,0.3607,0.3586,0.3678,0.3715,0.3813,0.3971,0.3779,0.3783,0.381,0.4198,0.4213,0.4244,0.3974,0.398,0.3984,0.4186,0,0.2388,0.2659,0.2712,0.2947,0.3082,0.3098,0.3231,0.3339,0.3402,0.3526,0.3596,0.3737,0.3701,0.3756,0.3853,0.3931,0.405,0.3918,0.4094,0.4099,0.4059,0.428,0.4298,0.4483,0.4213,0.4218,0.4221,0,0.2657,0.2782,0.303,0.3163,0.3222,0.334,0.3483,0.3601,0.3724,0.3762,0.3862,0.3887,0.4044,0.3974,0.419,0.4099,0.4173,0.4222,0.4231,0.425,0.4169,0.4304,0.4544,0.4571,0.4264,0.4261,0.4258,0,0.2779,0.3011,0.3188,0.3253,0.3413,0.3495,0.3566,0.3683,0.3771,0.3895,0.3953,0.4094,0.4172,0.4281,0.4343,0.4286,0.4554,0.4489,0.4589,0.4588,0.4646,0.4642,0.49,0.4695,0.4694,0.4694,0.4693,0,0.2996,0.3146,0.3245,0.3354,0.3522,0.3581,0.3746,0.3815,0.3919,0.4041,0.4064,0.4178,0.4253,0.4377,0.4426,0.4596,0.4632,0.4666,0.4678,0.4665,0.466,0.4715,0.4703,0.4701,0.4699,0.4698,0.4697,0,0.3162,0.3234,0.3428,0.3562,0.3599,0.3717,0.3832,0.3938,0.3999,0.4153,0.4193,0.429,0.4437,0.4508,0.4692,0.4724,0.4916,0.492,0.4875,0.4879,0.4975,0.4964,0.5278,0.5321,0.5087,0.5089,0.5091,0,0.3295,0.3411,0.3556,0.3639,0.3711,0.3845,0.3933,0.3994,0.4085,0.4231,0.4319,0.4466,0.4587,0.4821,0.4907,0.5046,0.5053,0.5153,0.5074,0.5056,0.5053,0.5045,0.5056,0.5167,0.5169,0.5171,0.5173,0,0.3523,0.3552,0.3679,0.3817,0.3921,0.4034,0.4144,0.421,0.4289,0.439,0.4539,0.4633,0.4818,0.4963,0.5108,0.518,0.5189,0.5196,0.5226,0.5214,0.5183,0.5199,0.4913,0.5189,0.5188,0.5186,0.5185,0.5185,0.3677,0.3779,0.3897,0.4036,0.4124,0.4226,0.4331,0.4404,0.4529,0.4684,0.4712,0.487,0.4986,0.518,0.5256,0.538,0.5358,0.5402,0.5413,0.5423,0.5427,0.5162,0.5407,0.5406,0.5406,0.5406,0.5406,0,0.3905,0.398,0.4108,0.426,0.4368,0.4366,0.4487,0.4578,0.4716,0.4823,0.4941,0.5111,0.5251,0.5346,0.5488,0.5568,0.5576,0.5603,0.5598,0.5614,0.544,0.5399,0.5594,0.5594,0.5594,0.5594,0.5594,0.5594,0.4037,0.4209,0.4251,0.4466,0.454,0.4694,0.4763,0.4856,0.4941,0.5129,0.5245,0.5306,0.5408,0.5556,0.5683,0.5708,0.5758,0.5786,0.581,0.5646,0.5626,0.5607,0.5569,0.5797,0.5797,0.5973,0.5974,0.5976]}]]